Ephrata, WA

10:41 PM PST on December 03, 2016 (GMT -0800)
Ephrata Municipal

Weather History for KEPH - September, 2013

Change the Weather History Date:

Saturday, September 28, 2013

  Actual Average Record
Temperature  
Mean Temperature 58 °F 59 °F  
Max Temperature 68 °F 73 °F 94 °F (1963)
Min Temperature 47 °F 45 °F 35 °F (1985)
Degree Days  
Heating Degree Days 7 7  
Month to date heating degree days 85 94  
Since 1 July heating degree days 85 111  
Cooling Degree Days 0 1  
Month to date cooling degree days 160 73  
Year to date cooling degree days 1084 767  
Growing Degree Days 7 (Base 50)    
Moisture  
Dew Point 48 °F    
Average Humidity 71    
Maximum Humidity 93    
Minimum Humidity 48    
Precipitation  
Precipitation 0.12 in 0.01 in 0.43 in (1982)
Month to date precipitation 0.70 0.33  
Year to date precipitation 4.94 4.99  
Sea Level Pressure  
Sea Level Pressure 29.65 in    
Wind  
Wind Speed 14 mph (SSW)    
Max Wind Speed 32 mph    
Max Gust Speed 47 mph    
Visibility 10 miles    
Events Rain    
T = Trace of Precipitation, MM = Missing Value Source: NWS Daily Summary

Daily Weather History Graph

Daily Weather History Graph

Search for Another Location

Airport or City:

Trip Planner

Search our weather history database for the weather conditions in past years. The results will help you decide how hot, cold, wet, or windy it might be!

Date:

Astronomy

Sep. 28, 2013 Rise Set
Actual Time 6:53 AM PDT 6:42 PM PDT
Civil Twilight 6:22 AM PDT 7:13 PM PDT
Nautical Twilight 5:47 AM PDT 7:48 PM PDT
Astronomical Twilight 5:10 AM PDT 8:25 PM PDT
Moon 12:24 AM PDT (9/28) 3:23 PM PDT (9/28)
Length of Visible Light 12h 50m
Length of Day
11h 49m
Waning Crescent, 35% of the Moon is Illuminated
Sep 28
Waning Crescent
Oct 4
New
Oct 11
First Quarter
Oct 18
Full
Oct 26
Last Quarter

Hourly Weather History & Observations

Time (PDT) Temp. Dew Point Humidity Pressure Visibility Wind Dir Wind Speed Gust Speed Precip Events Conditions
12:53 AM 48.0 °F 45.0 °F 89% 29.87 in 10.0 mi North 3.5 mph - N/A   Clear
1:53 AM 46.9 °F 45.0 °F 93% 29.86 in 10.0 mi NNE 3.5 mph - N/A   Clear
2:18 AM 48.2 °F 44.6 °F 87% 29.84 in 10.0 mi Calm Calm - N/A   Mostly Cloudy
2:53 AM 46.9 °F 45.0 °F 93% 29.84 in 10.0 mi North 3.5 mph - N/A   Overcast
3:24 AM 48.2 °F 44.6 °F 87% 29.82 in 10.0 mi Calm Calm - N/A   Mostly Cloudy
3:53 AM 48.0 °F 45.0 °F 89% 29.82 in 10.0 mi Calm Calm - N/A   Overcast
4:20 AM 46.4 °F 44.6 °F 93% 29.80 in 10.0 mi Calm Calm - N/A   Overcast
4:46 AM 48.2 °F 44.6 °F 87% 29.80 in 10.0 mi North 4.6 mph - N/A   Overcast
4:53 AM 48.0 °F 46.0 °F 93% 29.81 in 10.0 mi North 4.6 mph - N/A   Overcast
5:53 AM 48.0 °F 46.0 °F 93% 29.78 in 10.0 mi North 3.5 mph - 0.00 in   Overcast
6:53 AM 48.9 °F 46.9 °F 93% 29.77 in 10.0 mi Calm Calm - N/A   Overcast
7:53 AM 50.0 °F 48.0 °F 93% 29.74 in 8.0 mi Calm Calm - 0.01 in Rain Light Rain
8:53 AM 52.0 °F 50.0 °F 93% 29.71 in 8.0 mi Calm Calm - 0.00 in   Overcast
9:12 AM 53.6 °F 51.8 °F 94% 29.70 in 10.0 mi South 5.8 mph - N/A   Overcast
9:53 AM 55.0 °F 52.0 °F 89% 29.69 in 10.0 mi South 8.1 mph - 0.00 in   Overcast
10:00 AM 55.4 °F 51.8 °F 88% 29.68 in 10.0 mi South 8.1 mph - N/A   Overcast
10:53 AM 59.0 °F 52.0 °F 78% 29.65 in 10.0 mi South 15.0 mph 26.5 mph N/A   Overcast
11:02 AM 60.8 °F 51.8 °F 72% 29.64 in 10.0 mi South 16.1 mph - N/A   Overcast
11:21 AM 60.8 °F 51.8 °F 72% 29.63 in 10.0 mi South 18.4 mph 23.0 mph N/A   Overcast
11:53 AM 62.1 °F 51.1 °F 67% 29.62 in 10.0 mi SSW 20.7 mph 25.3 mph N/A   Overcast
12:53 PM 64.9 °F 50.0 °F 58% 29.57 in 10.0 mi South 28.8 mph 34.5 mph N/A   Overcast
1:53 PM 66.0 °F 50.0 °F 56% 29.54 in 10.0 mi South 24.2 mph 36.8 mph N/A   Partly Cloudy
2:53 PM 68.0 °F 48.0 °F 49% 29.52 in 10.0 mi South 32.2 mph 40.3 mph N/A   Mostly Cloudy
3:53 PM 66.0 °F 48.0 °F 52% 29.52 in 10.0 mi SSW 25.3 mph 38.0 mph N/A   Scattered Clouds
4:53 PM 66.0 °F 46.9 °F 50% 29.49 in 10.0 mi South 20.7 mph 28.8 mph N/A   Overcast
5:53 PM 66.0 °F 48.0 °F 52% 29.44 in 10.0 mi South 23.0 mph 36.8 mph N/A   Scattered Clouds
6:53 PM 64.9 °F 46.9 °F 52% 29.42 in 10.0 mi South 20.7 mph 31.1 mph N/A   Overcast
7:53 PM 66.9 °F 46.0 °F 47% 29.40 in 10.0 mi South 24.2 mph 36.8 mph N/A   Overcast
8:53 PM 64.9 °F 48.0 °F 54% 29.41 in 10.0 mi SSW 24.2 mph 36.8 mph 0.00 in Rain Light Rain
9:53 PM 55.9 °F 50.0 °F 80% 29.43 in 10.0 mi SW 18.4 mph - 0.07 in Rain Light Rain
10:53 PM 54.0 °F 48.0 °F 80% 29.46 in 10.0 mi SW 13.8 mph - 0.04 in Rain Light Rain
11:53 PM 51.1 °F 46.0 °F 83% 29.44 in 10.0 mi SSW 16.1 mph - 0.00 in   Overcast